Regional Weather Roundup
Issued by NWS Charleston, SC

Current Version | Previous Version | Graphics & Text | Print | Product List | Glossary On
Versions: 1 2 3 4 5 6 7 8 9 10 11 12 13 14 15 16 17 18 19 20 21 22 23 24 25 26 27 28 29 30 31 32 33 34 35 36 37 38 39 40 41 42 43 44 45 46 47 48 49 50
519
ASUS42 KCHS 200427
RWRCHS

REGIONAL WEATHER ROUNDUP
NATIONAL WEATHER SERVICE CHARLESTON SC
1200 AM EDT THU JUL 20 2017

NOTE: "FAIR" INDICATES FEW OR NO CLOUDS BELOW 12,000 FEET WITH NO
SIGNIFICANT WEATHER AND/OR OBSTRUCTIONS TO VISIBILITY.

NOT ALL STATIONS ARE QUALITY CONTROLLED. USE DATA WITH CAUTION...
ESPECIALLY DEWPOINT OBSERVATIONS.

SCZ027-030-031-034>040-042>050-200500-
...SOUTHEAST SOUTH CAROLINA...

CITY           SKY/WX    TMP DP  RH WIND       PRES   REMARKS
N CHARLESTON   PTCLDY    72  70  93 CALM      30.09S
WATERFRONT PRK   N/A     76  74  93 VRB3      30.07F
JOHNS ISLAND   FAIR      73  72  94 CALM      30.09S
PINOPOLIS        N/A     73  72  94 SW6       30.01S
MONCKS CORNER  FAIR      70  68  94 CALM      30.09S
SUMMERVILLE    FAIR      70  70 100 CALM      30.10S
BEAUFORT MCAS  CLEAR     78  76  93 S5        30.09F
BEAUFORT ARPT  FAIR      77  73  88 S3        30.09S
HILTON HEAD IS CLEAR     81  75  83 S6        30.10S
WALTERBORO     CLEAR     70  70 100 CALM      30.10S
ALLENDALE        N/A    N/A N/A N/A MISG        N/A

...SOUTHERN MIDLANDS AND PEE DEE...

CITY           SKY/WX    TMP DP  RH WIND       PRES   REMARKS
GEORGETOWN     NOT AVBL
KINGSTREE      FAIR      68  68 100 CALM      30.10R
ORANGEBURG     CLEAR     72  70  93 CALM      30.10F
BARNWELL       FAIR      77  72  83 CALM      30.10S
AIKEN          FAIR      73  70  88 S3        30.14S
MANNING        FAIR      70  70 100 W7        30.10S FOG
COLUMBIA       CLEAR     76  69  79 CALM      30.10R
SUMTER         CLEAR     72  69  92 SW3       30.08R
FLORENCE       CLEAR     73  72  96 W6        30.10R
MYRTLE BEACH   CLEAR     72  69  90 CALM      30.09
N MYRTLE BEACH CLEAR     73  69  87 W3        30.08S

$$

GAZ063-065-086>088-099>101-113>116-118-119-134>141-150-200500-
...SOUTHEAST GEORGIA...

CITY           SKY/WX    TMP DP  RH WIND       PRES   REMARKS
SAVANNAH ARPT  PTCLDY    76  73  91 CALM      30.10F
HUNTER AAF     CLEAR     79  75  88 CALM      30.07F
FORT STEWART   CLEAR     73  71  93 CALM      30.09R
STATESBORO     CLEAR     74  71  90 CALM      30.10S
SYLVANIA       CLEAR     74  72  93 CALM      30.10F
CLAXTON        FAIR      73  72  96 CALM      30.11R

...CSRA...CENTRAL AND FAR SOUTHEAST GEORGIA...

CITY           SKY/WX    TMP DP  RH WIND       PRES   REMARKS
THOMSON        PTCLDY    79  73  80 S3        30.15S
AUGUSTA-BUSH   PTCLDY    77  74  90 CALM        N/A
AUGUSTA-DANIEL CLEAR     79  71  76 SE6       30.11S
SWAINSBORO     FAIR      77  72  83 S7        30.12F
VIDALIA        MOCLDY    73  72  94 CALM      30.12S
EASTMAN        LGT RAIN  81  73  77 SE5       30.14R
HAZLEHURST     LGT RAIN  77  77 100 SE3       30.11F
ALMA           CLOUDY    79  72  79 CALM      30.12R
WAYCROSS       PTCLDY    79  79  99 NE5       30.11S
JESUP          FAIR      79  73  83 CALM      30.11S
BAXLEY         FAIR      77  77 100 CALM      30.11S
BRUNSWICK      CLOUDY    81  79  94 S3        30.10F
SAINT SIMONS   CLOUDY    82  76  81 S7        30.09F

$$

SCZ027-028-034-036>038-045-046-048>050-GAZ119-141-200500-
...LAKE AND SUPPLEMENTAL COASTAL OBSERVATIONS...

STATION/POSITION TIME  TEMP    WIND        PRES    WAVE   SWELL
                       AIR SEA DIR/SP/G            HT/PER HT/PER/DIR
                 (UTC) (F)     (DEG/KT/KT) (MB)    (FT/S) (FT/S/D)
WINYAH BAY       0345   73     260/  2     1019.0S
LAKE MURRAY      0420   79     190/  9/ 12 1018.3
ACE BASIN NERRS  0345   74        CALM     1019.0S
FORT PULASKI     0400   80 85  170/  2/  4 1019.4
SAPELO ISLAND    0400   81     190/  6     1019.0

$$

ANZ835-935-AMZ111-154-330-350-352-354-370-450-454-472-200500-
...C-MAN AND BUOY OBSERVATIONS...

STATION/POSITION TIME  TEMP    WIND        PRES    WAVE   SWELL
                       AIR SEA DIR/SP/G            HT/PER HT/PER/DIR
                 (UTC) (F)     (DEG/KT/KT) (MB)    (FT/S) (FT/S/D)
BUOY 41004       0410   81 83  200/  8/ 10 1018.5
BUOY 41008       0350   82 82  160/ 10/ 12 1018.8F   2/ 8   2/100/ 8
FOLLY BEACH CMAN 0400   78     250/  4/  5 1019.6R
CAPERS NEARSHORE 0408   78 83  220/  8/ 14 1018.7S
FRIPP NEARSHORE  0408   82 83  210/ 12/ 16 1018.5F


STATION/POSITION TIME  TEMP    WIND        PRES    WAVE   SWELL
                       AIR SEA DIR/SP/G            HT/PER HT/PER/DIR
                 (UTC) (F)     (DEG/KT/KT) (MB)    (FT/S) (FT/S/D)
5E ST. MARYS GA  0400      82                N/A     2/ 9
FRYING PAN BUOY  0410   82 83  230/ 10/ 12 1018.1
BUOY 41025       0350   82 85  220/  8/ 10 1018.4S   2/13   2/ 60/13
CAPE LOOKOUT NC  0400   79     210/  4/  5 1017.9F
BUOY 41002       0350   81 83  240/ 14/ 17 1018.9F   4/ 7   2/100/ 8
BUOY 41010       0410   83 85  180/ 10/ 12 1019.5
ST AUGUSTINE FL  0400   81 81  150/  5/  6 1019.3F


$$




USA.gov is the U.S. government's official web portal to all federal, state and local government web resources and services.